Temperature
18 18 17 17 16 16 16 16 16 16 16 16 16 16 16 16 16 16 16 16 16 16 16 16 16 16 16 16 16 16 15 15 15 15 15 15 15 14 14 14 14 14 15
20 18 17 17 16 16 16 16 16 16 16 16 16 16 16 16 16 16 16 16 16 16 16 16 16 16 16 16 16 16 15 15 14 14 14 15 15 15 14 14 15 15 14
20 18 17 17 16 16 16 16 16 16 16 16 16 16 16 16 16 16 16 16 16 16 16 16 16 16 16 16 16 15 15 14 14 14 14 14 15 15 15 15 15 15 15
20 18 17 16 16 16 16 16 16 16 16 16 16 16 16 16 16 16 16 16 16 16 16 16 16 16 16 16 16 15 15 14 14 14 14 14 15 15 15 15 15 15 15
19 18 17 16 16 16 16 16 17 16 16 16 16 16 16 16 17 17 17 17 17 17 17 17 16 16 16 16 16 15 15 14 14 14 14 15 15 15 15 15 15 15 15
18 17 17 16 16 16 16 17 17 17 17 16 16 16 16 17 17 17 17 17 17 17 17 17 17 16 16 16 16 15 15 14 14 14 14 15 15 15 15 15 15 15 15
17 17 16 16 16 16 16 17 17 17 17 16 17 16 17 17 17 17 17 17 17 17 17 17 17 17 16 16 16 16 15 15 14 14 14 15 15 15 15 15 15 15 15
17 17 16 16 16 16 16 16 17 17 17 17 16 17 17 17 17 17 17 17 17 17 17 17 17 17 17 16 16 16 15 15 14 14 14 15 15 15 15 15 15 15 15
17 16 16 15 15 16 16 17 17 17 17 17 16 17 17 17 17 17 17 17 17 17 17 17 17 17 17 16 16 16 15 15 14 14 14 15 15 15 15 15 15 15 15
16 16 16 15 15 16 16 16 17 17 17 17 17 17 17 17 17 17 17 17 17 17 17 17 17 17 17 16 16 16 15 15 14 14 14 14 14 15 15 15 15 15 15
16 16 16 15 15 15 16 16 16 17 17 17 17 17 17 17 17 17 17 17 17 17 17 17 17 17 16 16 16 16 15 15 14 14 14 14 14 14 15 15 14 14 14
16 16 16 15 15 15 15 16 16 16 16 16 16 16 16 15 16 17 17 17 17 17 17 17 17 16 16 16 16 15 15 15 14 14 14 14 14 14 14 14 14 14 14
16 16 16 16 15 15 15 15 15 15 15 15 15 15 15 15 15 16 16 16 17 17 17 16 16 16 16 15 15 15 14 14 14 14 14 14 14 14 14 14 14 14 14
16 16 16 16 15 15 15 15 14 15 15 14 14 14 14 15 15 15 15 16 16 16 16 16 15 15 14 14 14 14 14 14 14 14 14 14 14 14 14 14 14 14 13
16 16 16 16 15 15 15 15 15 15 15 15 14 14 14 14 15 14 15 15 15 14 15 15 15 14 14 14 14 14 14 14 13 13 13 13 14 14 14 13 13 13 13
16 16 16 15 15 15 15 15 15 14 14 14 15 15 14 14 14 14 14 14 14 14 14 14 14 14 14 14 14 14 14 14 13 13 13 13 13 13 13 13 13 13 13
16 16 16 15 15 15 15 15 15 14 14 14 14 14 14 14 14 14 14 14 14 14 14 14 14 14 14 14 14 14 13 13 13 13 13 13 13 13 13 13 12 12 12
16 15 15 15 15 15 15 15 14 14 14 14 14 14 14 14 14 14 14 14 14 14 14 14 14 13 13 13 13 13 13 13 13 13 13 13 13 12 12 12 12 12 12
16 16 15 15 15 15 15 15 14 14 14 14 14 14 14 14 14 14 14 14 14 14 14 13 13 13 13 13 13 13 13 13 13 13 13 13 13 12 12 12 12 12 11
16 16 16 15 15 15 15 15 15 14 14 14 14 14 14 14 14 14 14 14 13 13 13 13 13 13 13 13 13 13 13 13 13 13 13 13 12 12 12 11 11 11 11
16 16 16 16 15 15 15 15 15 15 15 14 14 14 14 14 14 14 14 14 14 13 13 13 13 13 13 13 12 12 13 13 13 13 13 12 12 12 11 11 11 10 10
16 16 16 16 15 15 15 15 15 15 14 14 14 14 14 14 14 14 14 14 13 13 13 13 13 12 12 12 12 11 11 12 12 13 12 12 12 11 11 11 10 10 10
16 16 16 16 15 15 15 15 15 15 14 14 14 14 14 14 14 14 14 14 13 13 13 13 13 12 12 12 11 11 10 11 11 12 12 11 11 11 10 10 10 10 9
16 16 16 15 15 15 15 15 15 15 15 14 14 14 14 14 14 14 14 13 13 13 13 13 12 12 11 11 11 10 10 10 10 10 10 10 10 10 10 10 9 9 9
16 16 15 15 15 15 15 15 15 15 14 14 14 14 14 14 14 14 13 13 13 12 12 12 12 11 11 10 10 10 10 10 9 9 9 10 10 9 9 9 9 8 8
16 16 15 15 15 15 15 15 15 14 14 14 14 13 13 13 13 13 13 12 12 12 11 11 11 11 10 10 9 9 9 9 9 9 9 9 9 9 9 8 8 8 7
Wind_Speed
13 19 21 19 18 17 16 15 14 14 14 14 15 15 16 16 17 17 18 19 20 20 20 20 20 19 19 18 17 17 15 15 15 15 16 17 16 17 17 18 16 14 15
18 22 22 20 19 18 17 16 14 14 14 14 15 15 16 16 16 17 18 18 19 19 20 19 19 18 17 17 16 14 12 11 10 9 12 16 17 16 17 17 16 14 15
19 22 21 20 19 18 17 16 15 14 14 14 15 15 16 16 16 17 17 18 18 18 18 18 17 16 16 15 14 12 10 8 6 5 7 13 16 16 16 16 16 15 15
20 21 20 20 20 19 17 16 15 14 14 14 15 15 16 16 16 17 17 17 17 17 16 16 15 15 15 14 12 10 8 7 9 9 12 15 14 14 15 15 15 15 15
18 20 22 21 20 19 17 16 15 14 14 14 14 15 16 16 16 16 16 16 16 15 15 15 14 14 13 12 11 9 8 9 10 10 15 16 14 14 14 14 15 15 15
15 21 22 21 20 18 17 15 15 14 14 15 15 15 15 16 16 16 15 15 14 14 14 14 13 12 12 11 9 8 8 11 8 12 16 15 13 13 13 13 14 14 14
16 21 21 21 20 18 16 15 14 13 14 14 15 15 15 15 15 15 14 13 13 12 12 12 11 11 10 9 8 7 9 13 7 12 14 13 12 11 12 12 12 12 12
16 19 20 20 19 17 16 15 14 13 13 14 14 14 15 15 14 13 12 11 11 11 10 10 9 9 8 7 6 6 8 10 7 8 13 12 10 9 10 10 10 10 11
16 16 17 17 17 17 16 14 13 12 12 13 14 14 15 14 13 12 11 10 9 9 8 8 7 6 6 5 4 5 7 10 10 3 8 10 8 7 7 7 8 8 9
13 13 14 16 16 15 14 14 13 12 13 14 14 15 15 14 13 12 11 9 8 7 6 5 4 3 2 1 1 3 7 10 9 1 8 9 7 5 4 5 5 6 6
10 11 11 13 15 16 15 14 14 13 14 14 14 14 14 12 13 11 11 9 7 5 4 3 2 2 3 4 5 5 7 10 6 2 8 9 5 2 1 1 2 3 4
9 9 9 9 11 14 14 14 13 12 13 12 13 13 11 9 10 11 12 9 7 6 5 5 6 6 8 9 9 8 9 9 6 2 7 9 6 2 2 2 2 1 1
9 8 8 8 9 10 10 11 11 12 12 12 14 14 9 9 10 10 10 9 9 9 9 9 10 10 11 6 5 9 8 4 7 4 6 8 6 5 5 6 5 5 4
9 8 8 8 7 9 9 7 8 8 8 7 8 9 7 5 5 6 7 9 10 10 9 8 9 10 8 8 8 8 6 6 8 6 7 9 8 7 8 9 8 8 7
9 9 9 9 8 7 6 5 5 6 7 7 7 5 4 4 3 3 3 5 5 5 5 5 6 5 4 5 5 5 6 8 9 8 8 12 12 11 11 11 11 11 10
9 9 8 8 7 7 5 3 3 5 5 7 7 5 4 4 2 2 1 2 2 2 3 3 5 4 3 3 4 5 7 8 8 8 8 11 14 14 14 13 13 13 13
8 8 8 8 7 7 6 5 5 6 6 5 7 6 5 4 3 2 2 1 3 4 5 4 5 3 2 3 4 6 7 8 8 8 9 9 11 15 16 15 15 14 14
7 7 7 7 8 7 6 5 4 5 6 5 6 6 6 6 6 4 2 2 4 4 3 2 2 3 3 4 4 4 4 5 7 9 10 10 9 10 12 15 15 14 13
7 7 7 7 7 7 6 5 5 5 4 5 6 4 4 4 4 3 3 3 4 3 2 2 2 3 3 4 4 4 4 4 5 7 7 9 9 7 6 7 11 13 13
6 7 8 7 7 7 5 4 3 3 3 4 4 4 3 2 2 2 2 3 3 1 2 3 3 3 3 4 4 5 5 6 5 6 6 6 6 4 3 2 4 7 9
6 7 8 8 7 6 5 5 4 4 3 3 3 4 3 1 1 0 1 2 2 2 3 3 3 4 3 2 2 4 6 8 9 7 3 1 1 1 1 1 1 1 2
7 7 7 7 7 6 5 4 4 3 3 3 3 4 4 2 2 1 1 1 2 2 3 4 3 2 3 2 2 3 4 5 4 3 2 2 1 2 2 4 5 6 7
7 7 6 7 6 6 6 4 4 3 3 2 3 3 3 4 4 4 3 3 2 1 2 3 3 3 3 3 3 3 3 3 4 3 1 1 2 2 2 4 7 9 10
7 6 5 6 6 5 6 6 6 5 4 4 3 4 4 5 5 5 5 4 3 2 2 3 3 3 3 3 3 4 4 3 2 3 3 1 1 2 3 4 7 9 10
8 6 6 5 5 5 5 6 6 4 4 4 4 5 4 5 6 5 5 5 4 3 3 4 4 4 3 3 3 3 3 3 4 4 4 3 1 2 3 4 6 9 11
8 7 6 6 5 5 5 5 5 6 6 6 5 4 3 3 4 5 5 4 4 3 3 4 4 4 3 4 3 2 2 2 2 2 3 2 1 1 3 5 6 8 11
Wind_Direction
129 139 142 137 132 127 121 115 108 103 101 99 94 88 84 80 77 76 78 80 83 85 86 86 85 83 81 79 78 77 77 80 81 81 76 66 60 57 53 51 58 54 54
132 139 142 139 135 129 123 116 110 106 105 102 97 92 88 84 82 81 82 82 82 84 84 84 83 82 81 79 78 77 78 78 78 81 83 72 61 57 55 53 52 52 52
130 138 142 140 136 130 123 118 114 110 108 104 100 97 93 89 87 85 84 84 84 83 83 82 81 81 80 79 77 76 72 57 39 43 82 80 65 57 56 53 49 49 48
130 140 143 139 135 130 125 121 118 114 110 108 104 101 98 94 90 88 86 86 86 85 84 83 82 80 80 79 76 72 56 25 11 45 76 75 63 56 54 51 48 48 45
132 139 137 139 135 131 127 124 121 117 113 112 108 105 103 99 95 93 90 89 88 88 86 84 83 81 80 77 72 61 35 10 9 61 77 75 65 58 54 50 47 46 44
130 128 136 137 134 130 128 126 123 120 118 117 113 109 107 104 101 98 96 94 91 89 88 85 83 81 79 75 65 45 18 2 26 75 77 73 65 59 55 51 47 44 41
126 128 138 136 134 131 129 128 126 123 121 121 118 114 112 109 107 104 101 98 95 91 89 86 83 80 77 71 58 30 7 356 49 85 85 76 70 61 55 50 47 44 41
124 130 137 137 134 132 131 129 128 127 126 124 122 117 116 114 112 109 106 103 98 93 89 86 82 79 74 66 50 20 359 354 5 83 97 89 76 63 54 51 49 46 44
124 130 137 138 134 132 131 130 130 128 127 126 124 122 121 120 119 117 114 110 103 97 93 89 84 80 74 65 39 2 341 332 329 53 101 99 88 69 57 51 48 47 46
128 136 142 144 140 137 132 131 130 127 127 126 128 129 131 133 132 130 123 117 112 107 103 100 96 95 96 94 347 318 313 310 298 143 112 114 103 79 60 51 44 44 45
135 141 145 148 149 147 140 139 133 130 131 132 137 145 150 158 154 147 135 134 132 131 134 139 163 208 226 234 238 258 282 285 282 108 121 132 127 111 62 37 30 29 36
149 146 145 147 149 144 141 151 152 150 154 161 160 172 190 178 147 139 144 154 162 172 182 200 218 238 244 237 230 240 260 273 283 209 155 155 159 188 247 257 266 290 323
156 149 145 140 140 137 148 163 161 162 174 188 171 186 191 140 137 149 163 174 189 199 207 212 221 235 238 225 200 230 243 292 314 304 170 170 182 214 249 257 254 252 256
159 154 148 143 142 147 156 156 155 158 173 175 168 182 174 157 166 174 177 184 194 201 206 200 222 228 224 229 229 244 253 232 246 246 193 192 202 221 243 254 256 252 249
162 161 156 152 151 151 148 152 167 162 166 160 158 187 172 147 182 177 195 181 211 204 184 213 248 260 250 256 257 255 266 266 256 245 222 209 215 223 235 247 252 253 250
166 165 159 159 155 152 151 160 171 158 153 147 152 186 186 178 172 134 227 179 233 236 247 239 254 259 265 269 278 282 273 273 271 265 246 223 222 228 233 241 248 252 254
166 164 161 163 160 160 164 173 170 160 164 157 160 188 184 186 168 174 251 209 233 239 244 250 278 294 296 294 283 276 272 270 277 279 274 253 229 229 234 239 246 252 256
162 161 163 165 168 169 167 167 165 173 166 162 164 183 187 196 191 193 214 236 248 246 243 242 264 281 274 266 266 272 275 276 268 269 273 272 253 234 232 237 243 251 257
162 162 163 162 168 171 167 162 163 166 157 159 157 165 179 192 188 191 213 244 253 248 245 250 249 256 273 277 278 282 285 283 275 274 269 270 268 253 234 235 240 246 254
163 168 169 170 173 169 164 159 156 156 149 151 145 145 155 181 198 214 235 261 276 257 257 259 257 255 258 273 291 290 282 275 268 261 256 266 279 270 249 262 253 252 255
173 175 173 173 177 166 160 162 163 169 163 151 131 122 126 125 128 150 321 305 308 281 274 276 273 273 269 270 295 294 277 260 254 246 230 216 309 13 60 13 304 323 324
179 182 173 170 173 166 159 156 150 146 141 133 117 112 103 87 59 58 17 327 325 313 305 299 296 280 272 240 228 283 302 305 290 253 174 144 92 52 62 59 49 46 45
178 177 173 165 161 155 147 132 118 104 99 128 138 124 93 80 60 47 27 4 350 340 304 306 309 289 277 270 228 229 258 278 331 336 6 92 80 59 48 58 60 54 50
161 147 145 142 142 143 142 146 154 159 165 165 149 136 118 95 70 48 28 10 358 348 328 318 322 308 289 278 277 245 235 242 262 300 322 358 43 57 50 58 62 56 53
145 140 140 138 141 144 145 151 157 150 141 124 114 123 122 107 90 65 37 17 8 4 354 346 336 325 304 281 277 281 275 266 239 237 267 288 350 37 53 59 62 58 56
138 142 148 151 150 144 142 144 145 142 136 132 134 138 131 124 109 86 51 23 16 18 5 354 340 334 331 316 303 295 283 275 269 250 253 261 269 342 56 56 59 58 55
Height
1529 1532 1535 1538 1541 1543 1544 1546 1547 1547 1548 1549 1550 1551 1551 1552 1552 1553 1553 1554 1555 1556 1557 1558 1558 1559 1559 1559 1559 1560 1560 1560 1560 1560 1560 1560 1559 1559 1558 1558 1557 1557 1556
1528 1532 1535 1538 1541 1543 1545 1547 1548 1549 1550 1551 1552 1552 1553 1553 1554 1554 1555 1556 1557 1558 1559 1560 1560 1561 1561 1561 1561 1562 1562 1563 1563 1562 1562 1562 1562 1561 1561 1560 1560 1559 1558
1528 1532 1536 1539 1542 1544 1546 1547 1549 1550 1551 1552 1553 1554 1555 1555 1556 1556 1557 1558 1559 1560 1561 1561 1562 1563 1563 1563 1564 1564 1565 1565 1565 1565 1565 1565 1564 1563 1563 1562 1562 1561 1560
1529 1533 1536 1539 1542 1545 1547 1548 1550 1551 1552 1554 1555 1556 1557 1557 1558 1558 1559 1560 1561 1562 1563 1563 1564 1565 1565 1565 1566 1567 1567 1567 1568 1568 1567 1567 1566 1565 1565 1564 1563 1562 1562
1530 1534 1537 1540 1543 1545 1548 1549 1551 1552 1554 1555 1556 1558 1558 1559 1560 1561 1561 1562 1563 1564 1565 1566 1566 1567 1567 1568 1568 1569 1569 1569 1569 1569 1569 1568 1568 1567 1566 1565 1564 1564 1563
1532 1534 1538 1541 1544 1546 1548 1550 1552 1554 1555 1557 1558 1559 1560 1561 1562 1563 1564 1565 1565 1566 1567 1568 1568 1569 1569 1570 1570 1570 1571 1571 1571 1571 1570 1570 1569 1568 1567 1566 1565 1564 1564
1533 1535 1539 1542 1545 1547 1549 1551 1553 1555 1556 1558 1559 1561 1562 1563 1564 1565 1566 1567 1568 1568 1569 1569 1570 1570 1571 1571 1572 1572 1572 1572 1572 1572 1571 1571 1570 1569 1568 1567 1566 1565 1564
1533 1536 1540 1543 1545 1548 1550 1552 1554 1556 1557 1559 1561 1562 1563 1564 1566 1567 1568 1569 1569 1570 1570 1571 1572 1572 1572 1573 1573 1573 1573 1573 1573 1573 1572 1572 1571 1570 1569 1568 1567 1566 1565
1535 1537 1540 1543 1546 1548 1550 1552 1554 1556 1558 1560 1561 1563 1564 1565 1567 1568 1569 1570 1571 1571 1572 1572 1573 1573 1573 1574 1574 1574 1574 1574 1574 1574 1573 1572 1572 1571 1570 1569 1568 1567 1565
1536 1538 1541 1543 1546 1548 1551 1553 1555 1557 1559 1560 1562 1564 1565 1566 1567 1568 1570 1570 1571 1572 1573 1573 1574 1574 1574 1574 1574 1575 1575 1575 1574 1574 1573 1573 1572 1571 1570 1569 1568 1567 1566
1537 1539 1542 1544 1547 1549 1551 1553 1555 1557 1559 1561 1563 1564 1566 1567 1568 1569 1570 1571 1572 1572 1573 1573 1574 1574 1574 1574 1574 1575 1575 1574 1574 1574 1573 1573 1572 1571 1570 1569 1568 1567 1566
1537 1540 1543 1545 1547 1549 1551 1553 1555 1557 1559 1561 1563 1565 1566 1567 1568 1568 1570 1571 1571 1572 1572 1573 1573 1573 1573 1573 1573 1574 1574 1573 1574 1573 1572 1572 1571 1570 1569 1568 1567 1566 1565
1537 1539 1543 1545 1548 1549 1551 1553 1556 1558 1560 1561 1563 1565 1566 1568 1568 1569 1569 1570 1571 1571 1572 1572 1572 1572 1572 1572 1573 1573 1572 1573 1573 1572 1571 1570 1570 1569 1568 1567 1566 1565 1564
1536 1539 1542 1544 1547 1549 1552 1554 1556 1558 1560 1562 1563 1565 1566 1567 1568 1568 1569 1569 1570 1570 1570 1571 1571 1571 1572 1572 1572 1571 1571 1571 1571 1570 1569 1569 1568 1567 1566 1565 1564 1563 1563
1535 1538 1541 1544 1546 1549 1551 1553 1556 1558 1559 1561 1562 1564 1565 1566 1567 1568 1568 1569 1569 1570 1570 1570 1570 1571 1571 1571 1570 1570 1570 1569 1569 1568 1567 1566 1565 1565 1564 1563 1562 1561 1561
1534 1537 1539 1542 1545 1547 1550 1552 1555 1557 1558 1560 1561 1562 1564 1565 1566 1566 1567 1568 1568 1568 1569 1569 1569 1569 1569 1569 1568 1568 1567 1567 1567 1566 1565 1564 1563 1562 1561 1561 1560 1559 1558
1532 1535 1537 1540 1543 1546 1548 1551 1553 1555 1557 1558 1559 1560 1562 1563 1564 1564 1565 1566 1566 1566 1567 1567 1567 1567 1567 1566 1566 1565 1564 1564 1563 1563 1562 1561 1560 1559 1558 1557 1557 1556 1555
1530 1532 1535 1538 1541 1543 1546 1549 1551 1553 1555 1556 1557 1559 1560 1561 1562 1562 1563 1564 1564 1565 1565 1565 1564 1564 1564 1563 1562 1562 1561 1561 1560 1559 1558 1558 1557 1555 1554 1554 1553 1553 1552
1528 1530 1533 1536 1538 1541 1544 1547 1549 1551 1553 1554 1555 1557 1558 1559 1560 1560 1561 1561 1562 1562 1562 1562 1562 1561 1560 1560 1559 1558 1557 1556 1555 1555 1554 1553 1553 1552 1551 1550 1549 1549 1548
1526 1528 1531 1533 1536 1538 1541 1544 1547 1548 1550 1552 1553 1554 1555 1556 1557 1558 1558 1559 1559 1559 1559 1559 1558 1558 1557 1556 1555 1553 1553 1552 1551 1550 1549 1549 1548 1548 1547 1546 1546 1545 1544
1523 1526 1528 1530 1533 1536 1538 1541 1543 1545 1547 1549 1550 1552 1553 1553 1554 1555 1555 1555 1556 1555 1555 1555 1555 1554 1553 1552 1551 1549 1547 1547 1546 1545 1545 1545 1545 1544 1544 1543 1542 1541 1540
1520 1523 1525 1528 1530 1532 1535 1538 1540 1542 1544 1546 1547 1549 1550 1550 1551 1551 1552 1552 1552 1551 1551 1551 1550 1549 1549 1549 1548 1546 1543 1542 1541 1541 1541 1541 1541 1541 1541 1540 1539 1538 1537
1517 1519 1522 1525 1527 1530 1532 1535 1537 1539 1541 1543 1544 1545 1546 1547 1547 1547 1548 1548 1547 1547 1547 1546 1546 1545 1544 1544 1544 1544 1542 1540 1539 1539 1539 1539 1538 1538 1537 1537 1536 1535 1534
1513 1516 1518 1521 1524 1526 1529 1531 1533 1535 1537 1539 1540 1541 1542 1542 1543 1543 1543 1543 1543 1542 1542 1541 1541 1540 1539 1539 1539 1539 1539 1538 1537 1535 1535 1535 1535 1535 1534 1533 1532 1531 1530
1509 1512 1515 1517 1520 1523 1525 1527 1530 1531 1533 1535 1536 1537 1537 1538 1538 1539 1539 1538 1538 1537 1537 1536 1535 1535 1534 1534 1534 1534 1533 1533 1533 1533 1531 1531 1532 1531 1530 1529 1529 1528 1526
1505 1508 1511 1513 1516 1519 1521 1524 1526 1528 1529 1531 1532 1533 1533 1533 1534 1534 1534 1533 1533 1532 1532 1531 1530 1530 1529 1529 1529 1529 1529 1529 1528 1528 1527 1527 1527 1527 1527 1526 1525 1524 1523